Location: Zagreb
(45.8000°N, 16.0000°E)
Time: 01:31:20
(UTC+01:00)

S-56A Canister/Altair - Pass Details

Date: 08 October 2020
Orbit: 633 x 2499 km, 38.9° (Epoch: 25 October)

Event Time Altitude Azimuth Distance (km) Brightness Sun altitude
Rises 20:09:17 0° 281° (W) 6,131 13.8 -19.4°
Reaches altitude 10° 20:16:14 10° 261° (W) 4,923 12.6 -20.6°
Maximum altitude 20:22:08 14° 235° (SW) 4,309 11.8 -21.6°
Drops below altitude 10° 20:27:28 10° 208° (SSW) 4,319 11.5 -22.5°
Sets 20:32:49 0° 186° (S) 4,912 11.5 -23.4°
